When you browse on this site, cookies collect data to enhance your experience and personalize the content and advertising you see.
Visit our Privacy Policy to learn more. By continuing to use the site, you agree to this use of cookies and data.
  • In Hungary
  • List of Countries
  • For 7 days
  • Water Temperature
  • Satellite Maps
  • Weather Map
  • News
  • Weather Widgets
  • user-avatar
    Login

    Hourly Weather Crete

    Today, 22 January, Tuesday

    Time Temperature Precipitation Wind Pressure Humidity
    00:00 +8°C° 0 mm 1 mps 708 mmHg 89%
    01:00 +8°C° 0 mm 1 mps 708 mmHg 90%
    02:00 +8°C° 0 mm 1 mps 708 mmHg 90%
    03:00 +8°C° 0 mm 1 mps 708 mmHg 90%
    04:00 +7°C° 0 mm 1 mps 708 mmHg 90%
    05:00 +7°C° 0 mm 1 mps 708 mmHg 90%
    06:00 +7°C° 0 mm 1 mps 708 mmHg 90%
    07:00 +7°C° 0 mm 1 mps 708 mmHg 90%
    08:00 +7°C° 0 mm 1 mps 708 mmHg 90%
    09:00 +8°C° 0 mm 2 mps 709 mmHg 81%
    10:00 +9°C° 0 mm 2 mps 709 mmHg 73%
    11:00 +12°C° 0 mm 2 mps 709 mmHg 65%
    12:00 +12°C° 0 mm 2 mps 709 mmHg 63%
    13:00 +12°C° 0 mm 3 mps 709 mmHg 62%
    14:00 +12°C° 0 mm 3 mps 708 mmHg 61%
    15:00 +12°C° 0 mm 3 mps 708 mmHg 66%
    16:00 +11°C° 0 mm 3 mps 708 mmHg 72%
    17:00 +10°C° 0 mm 3 mps 707 mmHg 77%
    18:00 +10°C° 0 mm 3 mps 707 mmHg 80%
    19:00 +9°C° 0 mm 3 mps 707 mmHg 83%
    20:00 +8°C° 0 mm 3 mps 707 mmHg 86%
    21:00 +8°C° 0 mm 3 mps 707 mmHg 87%
    22:00 +8°C° 0 mm 3 mps 707 mmHg 87%
    23:00 +8°C° 0 mm 3 mps 707 mmHg 88%

    Tomorrow, 23 January, Wednesday

    Time Temperature Precipitation Wind Pressure Humidity
    00:00 +8°C° 0 mm 3 mps 706 mmHg 87%
    01:00 +8°C° 0 mm 3 mps 706 mmHg 87%
    02:00 +8°C° 0 mm 3 mps 706 mmHg 86%
    03:00 +8°C° 0 mm 3 mps 705 mmHg 86%
    04:00 +8°C° 0 mm 3 mps 705 mmHg 85%
    05:00 +7°C° 0 mm 4 mps 704 mmHg 84%
    06:00 +7°C° 0 mm 4 mps 704 mmHg 84%
    07:00 +8°C° 0 mm 4 mps 704 mmHg 84%
    08:00 +8°C° 0 mm 4 mps 704 mmHg 84%
    09:00 +9°C° 0.1 mm 5 mps 704 mmHg 82%
    10:00 +10°C° 0.1 mm 6 mps 704 mmHg 79%
    11:00 +10°C° 0.1 mm 6 mps 704 mmHg 77%
    12:00 +11°C° 0.1 mm 7 mps 703 mmHg 76%
    13:00 +11°C° 0.1 mm 8 mps 702 mmHg 76%
    14:00 +11°C° 0.1 mm 8 mps 701 mmHg 75%
    15:00 +10°C° 0.1 mm 8 mps 701 mmHg 78%
    16:00 +10°C° 0.1 mm 8 mps 700 mmHg 80%
    17:00 +9°C° 0.1 mm 8 mps 699 mmHg 83%
    18:00 +9°C° 0.2 mm 8 mps 699 mmHg 84%
    19:00 +9°C° 0.2 mm 8 mps 698 mmHg 85%
    20:00 +9°C° 0.2 mm 8 mps 698 mmHg 86%
    21:00 +9°C° 0.4 mm 8 mps 698 mmHg 84%
    22:00 +9°C° 0.4 mm 8 mps 697 mmHg 83%
    23:00 +9°C° 0.4 mm 8 mps 697 mmHg 81%

    Day after tomorrow, 24 January, Thursday

    Time Temperature Precipitation Wind Pressure Humidity
    00:00 +7°C° 0.1 mm 8 mps 696 mmHg 81%
    01:00 +7°C° 0.1 mm 8 mps 695 mmHg 80%
    02:00 +8°C° 0.1 mm 7 mps 694 mmHg 80%
    03:00 +8°C° 0.4 mm 7 mps 694 mmHg 82%
    04:00 +8°C° 0.4 mm 7 mps 693 mmHg 85%
    05:00 +8°C° 0.4 mm 7 mps 693 mmHg 87%
    06:00 +6°C° 0.2 mm 7 mps 694 mmHg 87%
    07:00 +6°C° 0.2 mm 7 mps 694 mmHg 88%
    08:00 +6°C° 0.2 mm 7 mps 694 mmHg 88%
    09:00 +8°C° 0 mm 7 mps 695 mmHg 82%
    10:00 +9°C° 0 mm 8 mps 696 mmHg 75%
    11:00 +10°C° 0 mm 8 mps 697 mmHg 68%
    12:00 +9°C° 0.2 mm 8 mps 697 mmHg 70%
    13:00 +9°C° 0.2 mm 8 mps 697 mmHg 71%
    14:00 +9°C° 0.2 mm 8 mps 697 mmHg 73%
    15:00 +9°C° 0 mm 7 mps 698 mmHg 74%
    16:00 +8°C° 0 mm 7 mps 698 mmHg 75%
    17:00 +8°C° 0 mm 6 mps 698 mmHg 76%
    18:00 +8°C° 0 mm 6 mps 698 mmHg 78%
    19:00 +8°C° 0 mm 6 mps 699 mmHg 80%
    20:00 +7°C° 0 mm 5 mps 699 mmHg 82%
    21:00 +7°C° 0 mm 5 mps 700 mmHg 81%
    22:00 +7°C° 0 mm 5 mps 700 mmHg 80%
    23:00 +7°C° 0 mm 5 mps 700 mmHg 79%

    25 January, Friday

    Time Temperature Precipitation Wind Pressure Humidity
    00:00 +8°C° 0 mm 5 mps 700 mmHg 78%
    01:00 +8°C° 0 mm 6 mps 700 mmHg 77%
    02:00 +8°C° 0 mm 6 mps 700 mmHg 76%
    03:00 +8°C° 0 mm 6 mps 699 mmHg 74%
    04:00 +7°C° 0 mm 6 mps 699 mmHg 73%
    05:00 +7°C° 0 mm 6 mps 699 mmHg 71%
    06:00 +8°C° 0 mm 7 mps 699 mmHg 71%
    07:00 +7°C° 0 mm 8 mps 698 mmHg 70%
    08:00 +8°C° 0 mm 9 mps 698 mmHg 70%
    09:00 +8°C° 0 mm 10 mps 698 mmHg 68%
    10:00 +9°C° 0 mm 11 mps 698 mmHg 66%
    11:00 +10°C° 0 mm 12 mps 698 mmHg 64%
    12:00 +9°C° 0.4 mm 12 mps 698 mmHg 66%
    13:00 +9°C° 0.4 mm 11 mps 697 mmHg 68%
    14:00 +9°C° 0.4 mm 11 mps 697 mmHg 70%
    15:00 +8°C° 1.2 mm 10 mps 697 mmHg 73%
    16:00 +7°C° 1.2 mm 9 mps 697 mmHg 75%
    17:00 +7°C° 1.2 mm 8 mps 697 mmHg 78%
    18:00 +6°C° 0.1 mm 8 mps 697 mmHg 75%
    19:00 +6°C° 0.1 mm 8 mps 697 mmHg 72%
    20:00 +6°C° 0.1 mm 8 mps 697 mmHg 69%
    21:00 +6°C° 0.5 mm 8 mps 697 mmHg 73%
    22:00 +6°C° 0.5 mm 8 mps 697 mmHg 76%
    23:00 +6°C° 0.5 mm 9 mps 697 mmHg 79%

    26 January, Saturday

    Time Temperature Precipitation Wind Pressure Humidity
    00:00 +6°C° 1.7 mm 9 mps 697 mmHg 82%
    01:00 +6°C° 1.7 mm 8 mps 697 mmHg 85%
    02:00 +6°C° 1.7 mm 8 mps 697 mmHg 88%
    03:00 +6°C° 0.3 mm 7 mps 697 mmHg 88%
    04:00 +5°C° 0.3 mm 7 mps 696 mmHg 88%
    05:00 +5°C° 0.3 mm 6 mps 696 mmHg 87%
    06:00 +5°C° 0.1 mm 6 mps 696 mmHg 87%
    07:00 +6°C° 0.1 mm 5 mps 697 mmHg 87%
    08:00 +6°C° 0.1 mm 5 mps 697 mmHg 87%
    09:00 +7°C° 0.1 mm 5 mps 697 mmHg 84%
    10:00 +8°C° 0.1 mm 6 mps 698 mmHg 81%
    11:00 +8°C° 0.1 mm 6 mps 698 mmHg 79%
    12:00 +9°C° 0 mm 5 mps 698 mmHg 77%
    13:00 +9°C° 0 mm 5 mps 698 mmHg 75%
    14:00 +9°C° 0 mm 5 mps 698 mmHg 73%
    15:00 +9°C° 0.2 mm 5 mps 698 mmHg 75%
    16:00 +8°C° 0.2 mm 4 mps 698 mmHg 77%
    17:00 +8°C° 0.2 mm 4 mps 698 mmHg 79%
    18:00 +8°C° 0.1 mm 3 mps 698 mmHg 80%
    19:00 +8°C° 0.1 mm 3 mps 698 mmHg 81%
    20:00 +7°C° 0.1 mm 3 mps 698 mmHg 82%
    21:00 +7°C° 0.3 mm 3 mps 699 mmHg 83%
    22:00 +7°C° 0.3 mm 3 mps 699 mmHg 83%
    23:00 +7°C° 0.3 mm 3 mps 699 mmHg 84%

    27 January, Sunday

    Time Temperature Precipitation Wind Pressure Humidity
    00:00 +7°C° 0.5 mm 3 mps 699 mmHg 85%
    01:00 +7°C° 0.5 mm 3 mps 699 mmHg 85%
    02:00 +7°C° 0.5 mm 3 mps 699 mmHg 86%
    03:00 +7°C° 0.3 mm 3 mps 699 mmHg 85%
    04:00 +7°C° 0.3 mm 3 mps 699 mmHg 85%
    05:00 +6°C° 0.3 mm 2 mps 699 mmHg 84%
    06:00 +5°C° 0 mm 3 mps 699 mmHg 84%
    07:00 +5°C° 0 mm 3 mps 699 mmHg 84%
    08:00 +5°C° 0 mm 3 mps 700 mmHg 84%
    09:00 +7°C° 0 mm 3 mps 700 mmHg 79%
    10:00 +9°C° 0 mm 3 mps 701 mmHg 74%
    11:00 +10°C° 0 mm 4 mps 702 mmHg 68%
    12:00 +10°C° 0 mm 4 mps 702 mmHg 66%
    13:00 +11°C° 0 mm 4 mps 702 mmHg 64%
    14:00 +11°C° 0 mm 4 mps 702 mmHg 63%
    15:00 +10°C° 0 mm 4 mps 702 mmHg 66%
    16:00 +10°C° 0 mm 4 mps 703 mmHg 69%
    17:00 +8°C° 0 mm 4 mps 703 mmHg 72%
    18:00 +8°C° 0 mm 3 mps 703 mmHg 75%
    19:00 +8°C° 0 mm 3 mps 703 mmHg 77%
    20:00 +7°C° 0 mm 2 mps 704 mmHg 80%
    21:00 +7°C° 0 mm 2 mps 704 mmHg 81%
    22:00 +7°C° 0 mm 2 mps 704 mmHg 82%
    23:00 +6°C° 0 mm 2 mps 705 mmHg 83%
    Show more